Location: Coopersdale
(40.3556°N, 78.9372°W)
Time: 20:00:01
(UTC+00:00)

Transit 4A - Pass Details

Date: 27 January 2021
Orbit: 866 x 978 km, 66.8° (Epoch: 26 February)

Event Time Altitude Azimuth Distance (km) Brightness Sun altitude
Rises 06:22:52 0° 341° (NNW) 3,636 - -65.1°
Reaches altitude 10° 06:27:12 10° 9° (N) 2,662 - -64.7°
Maximum altitude 06:29:52 13° 34° (NE) 2,443 - -64.4°
Drops below altitude 10° 06:32:28 10° 60° (ENE) 2,623 - -64.1°
Sets 06:36:40 0° 88° (E) 3,533 - -63.6°
